Time,TemperatureF,DewpointF,PressureIn,WindDirection,WindDirectionDegrees,WindSpeedMPH,WindSpeedGustMPH,Humidity,HourlyPrecipIn,Conditions,Clouds,dailyrainin,SoftwareType,DateUTC
2013-07-12 00:02:00,63.1,52.8,29.87,North,359,0.0,0.0,69,0.00,,CLR,0.00,VWS V14.01,2013-07-12 04:02:00,
2013-07-12 00:07:00,63.1,52.8,29.87,North,359,0.0,0.0,69,0.00,,CLR,0.00,VWS V14.01,2013-07-12 04:07:00,
2013-07-12 00:13:00,63.1,52.8,29.87,North,357,0.0,0.0,69,0.00,,CLR,0.00,VWS V14.01,2013-07-12 04:13:00,
2013-07-12 00:17:00,63.1,52.8,29.88,North,359,0.0,0.0,69,0.00,,CLR,0.00,VWS V14.01,2013-07-12 04:17:00,
2013-07-12 00:22:00,62.9,53.0,29.88,North,359,0.0,0.0,70,0.00,,CLR,0.00,VWS V14.01,2013-07-12 04:22:00,
2013-07-12 00:32:00,62.4,53.3,29.88,North,357,0.0,0.0,72,0.00,,CLR,0.00,VWS V14.01,2013-07-12 04:32:00,
2013-07-12 00:37:00,62.3,53.5,29.88,North,357,0.0,0.0,73,0.00,,CLR,0.00,VWS V14.01,2013-07-12 04:37:00,
2013-07-12 00:42:00,62.0,53.3,29.88,North,359,0.0,0.0,73,0.00,,CLR,0.00,VWS V14.01,2013-07-12 04:42:00,
2013-07-12 00:47:00,61.6,52.9,29.88,North,357,0.0,0.0,73,0.00,,CLR,0.00,VWS V14.01,2013-07-12 04:47:00,
2013-07-12 00:52:00,61.5,53.2,29.88,North,357,0.0,0.0,74,0.00,,CLR,0.00,VWS V14.01,2013-07-12 04:52:00,
2013-07-12 00:57:00,61.3,53.0,29.88,North,357,0.0,0.0,74,0.00,,CLR,0.00,VWS V14.01,2013-07-12 04:57:00,
2013-07-12 01:02:00,61.3,53.3,29.88,North,357,0.0,0.0,75,0.00,,CLR,0.00,VWS V14.01,2013-07-12 05:02:00,
2013-07-12 01:07:00,61.0,53.0,29.88,North,357,0.0,0.0,75,0.00,,CLR,0.00,VWS V14.01,2013-07-12 05:07:00,
2013-07-12 01:12:00,60.9,52.9,29.88,North,357,0.0,0.0,75,0.00,,CLR,0.00,VWS V14.01,2013-07-12 05:12:00,
2013-07-12 01:17:00,60.5,53.3,29.88,North,357,0.0,0.0,77,0.00,,CLR,0.00,VWS V14.01,2013-07-12 05:17:00,
2013-07-12 01:22:00,60.2,53.0,29.88,North,357,0.0,0.0,77,0.00,,CLR,0.00,VWS V14.01,2013-07-12 05:22:00,
2013-07-12 01:27:00,59.9,53.0,29.88,North,357,0.0,0.0,78,0.00,,CLR,0.00,VWS V14.01,2013-07-12 05:27:00,
2013-07-12 01:32:00,59.9,53.0,29.88,North,357,0.0,0.0,78,0.00,,CLR,0.00,VWS V14.01,2013-07-12 05:32:00,
2013-07-12 01:37:00,59.9,53.4,29.88,North,357,0.0,0.0,79,0.00,,CLR,0.00,VWS V14.01,2013-07-12 05:37:00,
2013-07-12 01:42:00,59.8,53.3,29.88,North,357,0.0,0.0,79,0.00,,CLR,0.00,VWS V14.01,2013-07-12 05:42:00,
2013-07-12 01:47:00,59.6,53.1,29.88,North,357,0.0,0.0,79,0.00,,CLR,0.00,VWS V14.01,2013-07-12 05:47:00,
2013-07-12 01:52:00,59.5,53.3,29.88,North,357,0.0,0.0,80,0.00,,CLR,0.00,VWS V14.01,2013-07-12 05:52:00,
2013-07-12 01:57:00,59.5,53.3,29.88,North,357,0.0,0.0,80,0.00,,CLR,0.00,VWS V14.01,2013-07-12 05:57:00,
2013-07-12 02:02:00,59.3,53.1,29.88,North,359,0.0,0.0,80,0.00,,CLR,0.00,VWS V14.01,2013-07-12 06:02:00,
2013-07-12 02:12:00,59.2,53.4,29.88,North,357,0.0,0.0,81,0.00,,CLR,0.00,VWS V14.01,2013-07-12 06:12:00,
2013-07-12 02:17:00,59.2,53.4,29.88,North,359,0.0,0.0,81,0.00,,CLR,0.00,VWS V14.01,2013-07-12 06:17:00,
2013-07-12 02:27:00,59.3,53.5,29.88,North,357,0.0,0.0,81,0.00,,CLR,0.00,VWS V14.01,2013-07-12 06:27:00,
2013-07-12 02:32:00,59.3,53.5,29.89,North,357,0.0,0.0,81,0.00,,CLR,0.00,VWS V14.01,2013-07-12 06:32:00,
2013-07-12 02:37:00,59.5,53.3,29.89,North,357,0.0,0.0,80,0.00,,CLR,0.00,VWS V14.01,2013-07-12 06:37:00,
2013-07-12 02:42:00,59.6,53.8,29.89,North,357,0.0,0.0,81,0.00,,CLR,0.00,VWS V14.01,2013-07-12 06:42:00,
2013-07-12 02:52:00,59.2,53.4,29.89,North,359,0.0,0.0,81,0.00,,CLR,0.00,VWS V14.01,2013-07-12 06:52:00,
2013-07-12 02:57:00,58.9,53.1,29.89,North,357,0.0,0.0,81,0.00,,CLR,0.00,VWS V14.01,2013-07-12 06:57:00,
2013-07-12 03:02:00,58.7,53.2,29.89,North,359,0.0,0.0,82,0.00,,CLR,0.00,VWS V14.01,2013-07-12 07:02:00,
2013-07-12 03:07:00,58.7,53.2,29.89,North,357,0.0,0.0,82,0.00,,CLR,0.00,VWS V14.01,2013-07-12 07:07:00,
2013-07-12 03:12:00,58.7,53.2,29.89,North,357,0.0,0.0,82,0.00,,CLR,0.00,VWS V14.01,2013-07-12 07:12:00,
2013-07-12 03:17:00,58.7,53.2,29.89,North,357,0.0,0.0,82,0.00,,CLR,0.00,VWS V14.01,2013-07-12 07:17:00,
2013-07-12 03:27:00,58.7,53.2,29.89,North,357,0.0,0.0,82,0.00,,CLR,0.00,VWS V14.01,2013-07-12 07:27:00,
2013-07-12 03:32:00,58.7,53.2,29.89,North,359,0.0,0.0,82,0.00,,CLR,0.00,VWS V14.01,2013-07-12 07:32:00,
2013-07-12 03:37:00,58.7,53.2,29.89,North,359,0.0,0.0,82,0.00,,CLR,0.00,VWS V14.01,2013-07-12 07:37:00,
2013-07-12 03:42:00,58.7,53.2,29.89,North,359,0.0,0.0,82,0.00,,CLR,0.00,VWS V14.01,2013-07-12 07:42:00,
2013-07-12 03:47:00,58.6,53.1,29.89,North,357,0.0,0.0,82,0.00,,CLR,0.00,VWS V14.01,2013-07-12 07:47:00,
2013-07-12 03:52:00,58.6,53.1,29.89,North,359,0.0,0.0,82,0.00,,CLR,0.00,VWS V14.01,2013-07-12 07:52:00,
2013-07-12 03:57:00,58.6,53.1,29.89,North,357,0.0,0.0,82,0.00,,CLR,0.00,VWS V14.01,2013-07-12 07:57:00,
2013-07-12 04:02:00,58.4,52.9,29.89,North,359,0.0,0.0,82,0.00,,CLR,0.00,VWS V14.01,2013-07-12 08:02:00,
2013-07-12 04:07:00,58.4,52.9,29.89,North,359,0.0,0.0,82,0.00,,CLR,0.00,VWS V14.01,2013-07-12 08:07:00,
2013-07-12 04:12:00,58.4,52.9,29.89,North,359,0.0,0.0,82,0.00,,CLR,0.00,VWS V14.01,2013-07-12 08:12:00,
2013-07-12 04:22:00,58.4,53.3,29.89,North,359,0.0,0.0,83,0.00,,CLR,0.00,VWS V14.01,2013-07-12 08:22:00,
2013-07-12 04:32:00,58.3,52.8,29.90,North,359,0.0,0.0,82,0.00,,CLR,0.00,VWS V14.01,2013-07-12 08:32:00,
2013-07-12 04:42:00,58.0,52.9,29.90,North,357,0.0,0.0,83,0.00,,CLR,0.00,VWS V14.01,2013-07-12 08:42:00,
2013-07-12 04:47:00,57.8,52.7,29.90,North,357,0.0,0.0,83,0.00,,CLR,0.00,VWS V14.01,2013-07-12 08:47:00,
2013-07-12 04:52:00,57.8,53.0,29.90,North,357,0.0,0.0,84,0.00,,CLR,0.00,VWS V14.01,2013-07-12 08:52:00,
2013-07-12 04:57:00,57.6,52.8,29.90,North,357,0.0,0.0,84,0.00,,CLR,0.00,VWS V14.01,2013-07-12 08:57:00,
2013-07-12 05:02:00,57.5,52.7,29.90,North,357,0.0,0.0,84,0.00,,CLR,0.00,VWS V14.01,2013-07-12 09:02:00,
2013-07-12 05:07:00,57.3,52.8,29.90,North,357,0.0,0.0,85,0.00,,CLR,0.00,VWS V14.01,2013-07-12 09:07:00,
2013-07-12 05:12:00,57.2,52.7,29.90,North,359,0.0,0.0,85,0.00,,CLR,0.00,VWS V14.01,2013-07-12 09:12:00,
2013-07-12 05:22:00,56.9,52.8,29.91,North,359,0.0,0.0,86,0.00,,CLR,0.00,VWS V14.01,2013-07-12 09:22:00,
2013-07-12 05:27:00,56.9,52.8,29.91,North,357,0.0,0.0,86,0.00,,CLR,0.00,VWS V14.01,2013-07-12 09:27:00,
2013-07-12 05:37:00,56.9,53.1,29.92,North,357,0.0,0.0,87,0.00,,CLR,0.00,VWS V14.01,2013-07-12 09:37:00,
2013-07-12 05:42:00,56.9,53.1,29.92,North,357,0.0,0.0,87,0.00,,CLR,0.00,VWS V14.01,2013-07-12 09:42:00,
2013-07-12 05:47:00,56.9,53.1,29.92,North,357,0.0,0.0,87,0.00,,CLR,0.00,VWS V14.01,2013-07-12 09:47:00,
2013-07-12 05:52:00,56.7,52.9,29.92,North,357,0.0,0.0,87,0.00,,CLR,0.00,VWS V14.01,2013-07-12 09:52:00,
2013-07-12 05:57:00,56.6,52.8,29.92,North,359,0.0,0.0,87,0.00,,CLR,0.00,VWS V14.01,2013-07-12 09:57:00,
2013-07-12 06:02:00,56.5,52.7,29.92,North,359,0.0,0.0,87,0.00,,CLR,0.00,VWS V14.01,2013-07-12 10:02:00,
2013-07-12 06:12:00,56.3,52.5,29.92,North,357,0.0,0.0,87,0.00,,CLR,0.00,VWS V14.01,2013-07-12 10:12:00,
2013-07-12 06:17:00,56.2,52.4,29.93,North,359,0.0,0.0,87,0.00,,CLR,0.00,VWS V14.01,2013-07-12 10:17:00,
2013-07-12 06:22:00,56.0,52.2,29.93,North,359,0.0,0.0,87,0.00,,CLR,0.00,VWS V14.01,2013-07-12 10:22:00,
2013-07-12 06:32:00,56.2,52.7,29.93,North,359,0.0,0.0,88,0.00,,CLR,0.00,VWS V14.01,2013-07-12 10:32:00,
2013-07-12 06:37:00,56.3,52.8,29.93,North,359,0.0,0.0,88,0.00,,CLR,0.00,VWS V14.01,2013-07-12 10:37:00,
2013-07-12 06:42:00,56.5,53.0,29.93,North,359,0.0,0.0,88,0.00,,CLR,0.00,VWS V14.01,2013-07-12 10:42:00,
2013-07-12 06:47:00,56.7,53.2,29.93,North,359,0.0,0.0,88,0.00,,CLR,0.00,VWS V14.01,2013-07-12 10:47:00,
2013-07-12 06:57:00,57.3,53.8,29.93,North,357,0.0,0.0,88,0.00,,CLR,0.00,VWS V14.01,2013-07-12 10:57:00,
2013-07-12 07:02:00,57.8,54.0,29.93,North,359,0.0,0.0,87,0.00,,CLR,0.00,VWS V14.01,2013-07-12 11:02:00,
2013-07-12 07:12:00,58.1,53.9,29.93,North,357,0.0,0.0,86,0.00,,CLR,0.00,VWS V14.01,2013-07-12 11:12:00,
2013-07-12 07:17:00,58.3,54.1,29.93,North,359,0.0,0.0,86,0.00,,CLR,0.00,VWS V14.01,2013-07-12 11:17:00,
2013-07-12 07:22:00,58.4,54.2,29.93,North,357,0.0,0.0,86,0.00,,CLR,0.00,VWS V14.01,2013-07-12 11:22:00,
2013-07-12 07:27:00,58.6,54.4,29.93,North,357,0.0,0.0,86,0.00,,CLR,0.00,VWS V14.01,2013-07-12 11:27:00,
2013-07-12 07:32:00,58.7,54.5,29.93,North,357,0.0,0.0,86,0.00,,CLR,0.00,VWS V14.01,2013-07-12 11:32:00,
2013-07-12 07:37:00,59.3,54.8,29.93,North,357,0.0,0.0,85,0.00,,CLR,0.00,VWS V14.01,2013-07-12 11:37:00,
2013-07-12 07:47:00,60.2,55.3,29.93,North,357,0.0,0.0,84,0.00,,CLR,0.00,VWS V14.01,2013-07-12 11:47:00,
2013-07-12 07:52:00,60.1,54.9,29.93,North,357,0.0,0.0,83,0.00,,CLR,0.00,VWS V14.01,2013-07-12 11:52:00,
2013-07-12 07:57:00,60.5,55.3,29.93,NE,37,0.0,0.0,83,0.00,,CLR,0.00,VWS V14.01,2013-07-12 11:57:00,
2013-07-12 08:07:00,61.6,55.7,29.93,NE,38,0.0,0.0,81,0.00,,CLR,0.00,VWS V14.01,2013-07-12 12:07:00,
2013-07-12 08:17:00,62.9,57.3,29.94,NE,38,0.0,0.0,82,0.00,,CLR,0.00,VWS V14.01,2013-07-12 12:17:00,
2013-07-12 08:22:00,63.7,57.4,29.94,NE,41,0.0,0.0,80,0.00,,CLR,0.00,VWS V14.01,2013-07-12 12:22:00,
2013-07-12 08:32:00,65.2,57.8,29.94,NE,44,0.0,0.0,77,0.00,,CLR,0.00,VWS V14.01,2013-07-12 12:32:00,
2013-07-12 08:37:00,65.6,57.5,29.94,NE,47,0.0,0.0,75,0.00,,CLR,0.00,VWS V14.01,2013-07-12 12:37:00,
2013-07-12 08:42:00,66.3,57.8,29.94,NE,47,0.0,0.0,74,0.00,,CLR,0.00,VWS V14.01,2013-07-12 12:42:00,
2013-07-12 08:47:00,66.6,57.7,29.94,NE,47,0.0,0.0,73,0.00,,CLR,0.00,VWS V14.01,2013-07-12 12:47:00,
2013-07-12 08:57:00,67.8,58.1,29.94,NE,47,0.0,0.0,71,0.00,,CLR,0.00,VWS V14.01,2013-07-12 12:57:00,
2013-07-12 09:07:00,68.1,58.3,29.94,NE,47,0.0,0.0,71,0.00,,CLR,0.00,VWS V14.01,2013-07-12 13:07:00,
2013-07-12 09:12:00,68.3,58.9,29.94,NE,47,0.0,0.0,72,0.00,,CLR,0.00,VWS V14.01,2013-07-12 13:12:00,
2013-07-12 09:17:00,69.8,59.2,29.94,NE,47,0.0,0.0,69,0.00,,CLR,0.00,VWS V14.01,2013-07-12 13:17:00,
2013-07-12 09:27:00,73.0,59.2,29.94,NE,47,0.0,0.0,62,0.00,,CLR,0.00,VWS V14.01,2013-07-12 13:27:00,
2013-07-12 09:32:00,73.0,59.2,29.94,NE,47,0.0,0.0,62,0.00,,CLR,0.00,VWS V14.01,2013-07-12 13:32:00,
2013-07-12 09:42:00,72.1,59.3,29.94,NE,47,0.0,0.0,64,0.00,,CLR,0.00,VWS V14.01,2013-07-12 13:42:00,
2013-07-12 09:47:00,73.0,59.2,29.94,NE,47,0.0,0.0,62,0.00,,CLR,0.00,VWS V14.01,2013-07-12 13:47:00,
2013-07-12 09:57:00,74.0,59.2,29.94,NE,47,0.0,0.0,60,0.00,,CLR,0.00,VWS V14.01,2013-07-12 13:57:00,
2013-07-12 10:02:00,75.1,59.8,29.94,NE,47,0.0,0.0,59,0.00,,CLR,0.00,VWS V14.01,2013-07-12 14:02:00,
2013-07-12 10:12:00,73.5,58.8,29.94,NE,45,0.0,0.0,60,0.00,,CLR,0.00,VWS V14.01,2013-07-12 14:12:00,
2013-07-12 10:17:00,72.8,58.1,29.94,NE,45,0.0,0.0,60,0.00,,CLR,0.00,VWS V14.01,2013-07-12 14:17:00,
2013-07-12 10:22:00,73.3,59.0,29.94,NE,47,0.0,0.0,61,0.00,,CLR,0.00,VWS V14.01,2013-07-12 14:22:00,
2013-07-12 10:27:00,74.7,59.0,29.94,NE,47,0.0,0.0,58,0.00,,CLR,0.00,VWS V14.01,2013-07-12 14:27:00,
2013-07-12 10:32:00,75.1,59.3,29.94,NE,45,0.0,0.0,58,0.00,,CLR,0.00,VWS V14.01,2013-07-12 14:32:00,
2013-07-12 10:37:00,75.1,57.8,29.94,NE,45,0.0,0.0,55,0.00,,CLR,0.00,VWS V14.01,2013-07-12 14:37:00,
2013-07-12 10:42:00,74.7,58.0,29.94,NE,45,0.0,0.0,56,0.00,,CLR,0.00,VWS V14.01,2013-07-12 14:42:00,
2013-07-12 10:47:00,76.1,57.8,29.93,NE,45,0.0,0.0,53,0.00,,CLR,0.00,VWS V14.01,2013-07-12 14:47:00,
2013-07-12 10:52:00,77.2,57.1,29.93,NE,55,0.0,0.0,50,0.00,,CLR,0.00,VWS V14.01,2013-07-12 14:52:00,
2013-07-12 10:57:00,77.4,56.2,29.93,ENE,71,0.0,0.0,48,0.00,,CLR,0.00,VWS V14.01,2013-07-12 14:57:00,
2013-07-12 11:02:00,78.1,56.2,29.92,ENE,66,0.0,0.0,47,0.00,,CLR,0.00,VWS V14.01,2013-07-12 15:02:00,
2013-07-12 11:07:00,78.6,57.3,29.92,ENE,76,0.0,0.0,48,0.00,,CLR,0.00,VWS V14.01,2013-07-12 15:07:00,
2013-07-12 11:12:00,78.1,58.0,29.92,ENE,73,0.0,0.0,50,0.00,,CLR,0.00,VWS V14.01,2013-07-12 15:12:00,
2013-07-12 11:22:00,77.7,55.9,29.92,NE,44,0.0,0.0,47,0.00,,CLR,0.00,VWS V14.01,2013-07-12 15:22:00,
2013-07-12 11:27:00,78.1,56.8,29.92,ENE,59,0.0,0.0,48,0.00,,CLR,0.00,VWS V14.01,2013-07-12 15:27:00,
2013-07-12 11:32:00,77.0,56.4,29.94,NE,55,0.0,0.0,49,0.00,,CLR,0.00,VWS V14.01,2013-07-12 15:32:00,
2013-07-12 11:37:00,76.1,56.7,29.94,NE,48,0.0,0.0,51,0.00,,CLR,0.00,VWS V14.01,2013-07-12 15:37:00,
2013-07-12 11:42:00,75.6,52.8,29.94,NE,54,0.0,0.0,45,0.00,,CLR,0.00,VWS V14.01,2013-07-12 15:42:00,
2013-07-12 11:47:00,76.3,54.6,29.93,East,80,0.0,0.0,47,0.00,,CLR,0.00,VWS V14.01,2013-07-12 15:47:00,
2013-07-12 11:57:00,76.7,55.0,29.93,ENE,73,0.0,0.0,47,0.00,,CLR,0.00,VWS V14.01,2013-07-12 15:57:00,
2013-07-12 12:02:00,77.0,54.7,29.93,ENE,62,0.0,0.0,46,0.00,,CLR,0.00,VWS V14.01,2013-07-12 16:02:00,
2013-07-12 12:12:00,79.4,52.3,29.93,NE,44,0.0,0.0,39,0.00,,CLR,0.00,VWS V14.01,2013-07-12 16:12:00,
2013-07-12 12:17:00,78.3,54.6,29.93,ENE,64,0.0,0.0,44,0.00,,CLR,0.00,VWS V14.01,2013-07-12 16:17:00,
2013-07-12 12:27:00,80.1,54.3,29.93,ENE,75,0.0,0.0,41,0.00,,CLR,0.00,VWS V14.01,2013-07-12 16:27:00,
2013-07-12 12:32:00,78.8,55.7,29.93,ENE,64,0.0,0.0,45,0.00,,CLR,0.00,VWS V14.01,2013-07-12 16:32:00,
2013-07-12 12:37:00,78.8,56.3,29.93,East,80,0.0,0.0,46,0.00,,CLR,0.00,VWS V14.01,2013-07-12 16:37:00,
2013-07-12 12:42:00,81.8,53.7,29.93,ENE,65,0.0,0.0,38,0.00,,CLR,0.00,VWS V14.01,2013-07-12 16:42:00,
2013-07-12 12:52:00,77.6,55.2,29.93,NE,55,0.0,0.0,46,0.00,,CLR,0.00,VWS V14.01,2013-07-12 16:52:00,
2013-07-12 13:02:00,77.7,54.7,29.94,East,89,0.0,0.0,45,0.00,,CLR,0.00,VWS V14.01,2013-07-12 17:02:00,
2013-07-12 13:07:00,77.7,54.7,29.94,NE,44,0.0,0.0,45,0.00,,CLR,0.00,VWS V14.01,2013-07-12 17:07:00,
2013-07-12 13:12:00,77.4,54.4,29.94,NNE,32,0.0,0.0,45,0.00,,CLR,0.00,VWS V14.01,2013-07-12 17:12:00,
2013-07-12 13:17:00,78.1,56.2,29.94,NE,56,0.0,0.0,47,0.00,,CLR,0.00,VWS V14.01,2013-07-12 17:17:00,
2013-07-12 13:22:00,79.6,53.2,29.94,ENE,69,0.0,0.0,40,0.00,,CLR,0.00,VWS V14.01,2013-07-12 17:22:00,
2013-07-12 13:27:00,80.3,55.1,29.94,East,79,0.0,0.0,42,0.00,,CLR,0.00,VWS V14.01,2013-07-12 17:27:00,
2013-07-12 13:32:00,81.6,55.0,29.93,ENE,72,0.0,0.0,40,0.00,,CLR,0.00,VWS V14.01,2013-07-12 17:32:00,
2013-07-12 13:37:00,81.1,53.1,29.93,East,79,0.0,0.0,38,0.00,,CLR,0.00,VWS V14.01,2013-07-12 17:37:00,
2013-07-12 13:47:00,79.8,53.4,29.93,NE,48,0.0,0.0,40,0.00,,CLR,0.00,VWS V14.01,2013-07-12 17:47:00,
2013-07-12 13:57:00,80.5,54.0,29.93,NE,55,0.0,0.0,40,0.00,,CLR,0.00,VWS V14.01,2013-07-12 17:57:00,
2013-07-12 14:02:00,80.7,54.8,29.92,ENE,69,0.0,0.0,41,0.00,,CLR,0.00,VWS V14.01,2013-07-12 18:02:00,
2013-07-12 14:17:00,79.6,56.4,29.92,ENE,75,0.0,0.0,45,0.00,,CLR,0.00,VWS V14.01,2013-07-12 18:17:00,
2013-07-12 14:22:00,79.2,54.8,29.92,NE,51,0.0,0.0,43,0.00,,CLR,0.00,VWS V14.01,2013-07-12 18:22:00,
2013-07-12 14:32:00,79.9,55.4,29.92,ENE,58,0.0,0.0,43,0.00,,CLR,0.00,VWS V14.01,2013-07-12 18:32:00,
2013-07-12 14:42:00,82.4,54.3,29.92,ENE,71,0.0,0.0,38,0.00,,CLR,0.00,VWS V14.01,2013-07-12 18:42:00,
2013-07-12 14:47:00,83.2,51.9,29.92,ENE,72,0.0,0.0,34,0.00,,CLR,0.00,VWS V14.01,2013-07-12 18:47:00,
2013-07-12 14:52:00,81.8,53.7,29.92,ENE,58,0.0,0.0,38,0.00,,CLR,0.00,VWS V14.01,2013-07-12 18:52:00,
2013-07-12 14:57:00,82.2,53.4,29.92,NE,49,0.0,0.0,37,0.00,,CLR,0.00,VWS V14.01,2013-07-12 18:57:00,
2013-07-12 15:02:00,81.4,54.1,29.92,ENE,76,0.0,0.0,39,0.00,,CLR,0.00,VWS V14.01,2013-07-12 19:02:00,
2013-07-12 15:07:00,80.9,52.2,29.92,East,85,0.0,0.0,37,0.00,,CLR,0.00,VWS V14.01,2013-07-12 19:07:00,
2013-07-12 15:17:00,79.9,55.4,29.92,NE,38,0.0,0.0,43,0.00,,CLR,0.00,VWS V14.01,2013-07-12 19:17:00,
2013-07-12 15:22:00,79.9,54.8,29.92,ENE,73,0.0,0.0,42,0.00,,CLR,0.00,VWS V14.01,2013-07-12 19:22:00,
2013-07-12 15:27:00,79.8,53.4,29.92,NE,45,0.0,0.0,40,0.00,,CLR,0.00,VWS V14.01,2013-07-12 19:27:00,
2013-07-12 15:32:00,79.6,53.8,29.92,ENE,59,0.0,0.0,41,0.00,,CLR,0.00,VWS V14.01,2013-07-12 19:32:00,
2013-07-12 15:37:00,81.6,55.6,29.92,ENE,64,0.0,0.0,41,0.00,,CLR,0.00,VWS V14.01,2013-07-12 19:37:00,
2013-07-12 15:42:00,81.4,52.7,29.92,ENE,65,0.0,0.0,37,0.00,,CLR,0.00,VWS V14.01,2013-07-12 19:42:00,
2013-07-12 15:47:00,81.2,53.2,29.92,NE,54,0.0,0.0,38,0.00,,CLR,0.00,VWS V14.01,2013-07-12 19:47:00,
2013-07-12 15:52:00,82.8,53.9,29.92,East,80,0.0,0.0,37,0.00,,CLR,0.00,VWS V14.01,2013-07-12 19:52:00,
2013-07-12 15:57:00,80.9,54.3,29.92,NE,55,0.0,0.0,40,0.00,,CLR,0.00,VWS V14.01,2013-07-12 19:57:00,
2013-07-12 16:02:00,80.7,56.2,29.91,ENE,62,0.0,0.0,43,0.00,,CLR,0.00,VWS V14.01,2013-07-12 20:02:00,
2013-07-12 16:12:00,80.3,54.5,29.91,NE,47,0.0,0.0,41,0.00,,CLR,0.00,VWS V14.01,2013-07-12 20:12:00,
2013-07-12 16:17:00,81.1,56.5,29.91,East,85,0.0,0.0,43,0.00,,CLR,0.00,VWS V14.01,2013-07-12 20:17:00,
2013-07-12 16:22:00,81.1,55.2,29.91,NE,35,0.0,0.0,41,0.00,,CLR,0.00,VWS V14.01,2013-07-12 20:22:00,
2013-07-12 16:32:00,80.1,55.6,29.91,ENE,75,0.0,0.0,43,0.00,,CLR,0.00,VWS V14.01,2013-07-12 20:32:00,
2013-07-12 16:37:00,80.9,55.0,29.91,ENE,71,0.0,0.0,41,0.00,,CLR,0.00,VWS V14.01,2013-07-12 20:37:00,
2013-07-12 16:47:00,81.4,55.5,29.91,NE,54,0.0,0.0,41,0.00,,CLR,0.00,VWS V14.01,2013-07-12 20:47:00,
2013-07-12 16:52:00,82.6,57.2,29.91,ENE,64,0.0,0.0,42,0.00,,CLR,0.00,VWS V14.01,2013-07-12 20:52:00,
2013-07-12 16:57:00,83.6,56.0,29.91,ENE,76,0.0,0.0,39,0.00,,CLR,0.00,VWS V14.01,2013-07-12 20:57:00,
2013-07-12 17:07:00,82.4,54.3,29.90,East,86,0.0,0.0,38,0.00,,CLR,0.00,VWS V14.01,2013-07-12 21:07:00,
2013-07-12 17:12:00,82.0,54.6,29.90,NE,56,0.0,0.0,39,0.00,,CLR,0.00,VWS V14.01,2013-07-12 21:12:00,
2013-07-12 17:17:00,80.1,54.3,29.90,NE,56,0.0,0.0,41,0.00,,CLR,0.00,VWS V14.01,2013-07-12 21:17:00,
2013-07-12 17:27:00,80.9,55.0,29.90,ENE,78,0.0,0.0,41,0.00,,CLR,0.00,VWS V14.01,2013-07-12 21:27:00,
2013-07-12 17:37:00,80.3,54.5,29.91,ENE,59,0.0,0.0,41,0.00,,CLR,0.00,VWS V14.01,2013-07-12 21:37:00,
2013-07-12 17:42:00,80.7,55.5,29.91,ENE,62,0.0,0.0,42,0.00,,CLR,0.00,VWS V14.01,2013-07-12 21:42:00,
2013-07-12 17:47:00,80.1,55.0,29.91,NE,44,0.0,0.0,42,0.00,,CLR,0.00,VWS V14.01,2013-07-12 21:47:00,
2013-07-12 17:57:00,79.4,56.2,29.91,NE,56,0.0,0.0,45,0.00,,CLR,0.00,VWS V14.01,2013-07-12 21:57:00,
2013-07-12 18:02:00,81.4,54.8,29.91,East,79,0.0,0.0,40,0.00,,CLR,0.00,VWS V14.01,2013-07-12 22:02:00,
2013-07-12 18:12:00,80.9,55.0,29.91,ENE,61,0.0,0.0,41,0.00,,CLR,0.00,VWS V14.01,2013-07-12 22:12:00,
2013-07-12 18:17:00,80.3,55.1,29.91,NE,49,0.0,0.0,42,0.00,,CLR,0.00,VWS V14.01,2013-07-12 22:17:00,
2013-07-12 18:22:00,80.7,56.2,29.91,ENE,62,0.0,0.0,43,0.00,,CLR,0.00,VWS V14.01,2013-07-12 22:22:00,
2013-07-12 18:27:00,80.1,55.6,29.91,ENE,75,0.0,0.0,43,0.00,,CLR,0.00,VWS V14.01,2013-07-12 22:27:00,
2013-07-12 18:37:00,81.1,53.1,29.91,East,96,0.0,0.0,38,0.00,,CLR,0.00,VWS V14.01,2013-07-12 22:37:00,
2013-07-12 18:42:00,81.4,53.4,29.91,East,79,0.0,0.0,38,0.00,,CLR,0.00,VWS V14.01,2013-07-12 22:42:00,
2013-07-12 18:47:00,81.1,54.5,29.90,ENE,76,0.0,0.0,40,0.00,,CLR,0.00,VWS V14.01,2013-07-12 22:47:00,
2013-07-12 19:02:00,78.1,55.7,29.90,East,79,0.0,0.0,46,0.00,,CLR,0.00,VWS V14.01,2013-07-12 23:02:00,
2013-07-12 19:07:00,77.7,56.5,29.90,East,79,0.0,0.0,48,0.00,,CLR,0.00,VWS V14.01,2013-07-12 23:07:00,
2013-07-12 19:12:00,78.6,54.9,29.90,East,89,0.0,0.0,44,0.00,,CLR,0.00,VWS V14.01,2013-07-12 23:12:00,
2013-07-12 19:17:00,79.4,55.6,29.90,East,80,0.0,0.0,44,0.00,,CLR,0.00,VWS V14.01,2013-07-12 23:17:00,
2013-07-12 19:22:00,79.6,53.8,29.90,ENE,78,0.0,0.0,41,0.00,,CLR,0.00,VWS V14.01,2013-07-12 23:22:00,
2013-07-12 19:32:00,79.6,55.2,29.89,East,79,0.0,0.0,43,0.00,,CLR,0.00,VWS V14.01,2013-07-12 23:32:00,
2013-07-12 19:37:00,79.8,55.3,29.89,East,79,0.0,0.0,43,0.00,,CLR,0.00,VWS V14.01,2013-07-12 23:37:00,
2013-07-12 19:42:00,79.6,55.8,29.89,East,85,0.0,0.0,44,0.00,,CLR,0.00,VWS V14.01,2013-07-12 23:42:00,
2013-07-12 19:47:00,79.4,53.7,29.90,ESE,102,0.0,0.0,41,0.00,,CLR,0.00,VWS V14.01,2013-07-12 23:47:00,
2013-07-12 19:52:00,79.0,54.0,29.90,East,89,0.0,0.0,42,0.00,,CLR,0.00,VWS V14.01,2013-07-12 23:52:00,
2013-07-12 20:02:00,78.5,54.8,29.90,East,86,0.0,0.0,44,0.00,,CLR,0.00,VWS V14.01,2013-07-13 00:02:00,
2013-07-12 20:17:00,77.6,55.2,29.89,East,86,0.0,0.0,46,0.00,,CLR,0.00,VWS V14.01,2013-07-13 00:17:00,
2013-07-12 20:27:00,77.2,56.0,29.89,East,86,0.0,0.0,48,0.00,,CLR,0.00,VWS V14.01,2013-07-13 00:27:00,
2013-07-12 20:32:00,76.8,55.7,29.89,East,86,0.0,0.0,48,0.00,,CLR,0.00,VWS V14.01,2013-07-13 00:32:00,
2013-07-12 20:37:00,76.5,55.4,29.89,East,86,0.0,0.0,48,0.00,,CLR,0.00,VWS V14.01,2013-07-13 00:37:00,
2013-07-12 20:42:00,76.3,55.8,29.89,East,86,0.0,0.0,49,0.00,,CLR,0.00,VWS V14.01,2013-07-13 00:42:00,
2013-07-12 20:47:00,76.0,56.0,29.90,East,86,0.0,0.0,50,0.00,,CLR,0.00,VWS V14.01,2013-07-13 00:47:00,
2013-07-12 20:57:00,75.1,56.3,29.90,East,86,0.0,0.0,52,0.00,,CLR,0.00,VWS V14.01,2013-07-13 00:57:00,
2013-07-12 21:07:00,74.4,56.7,29.90,East,86,0.0,0.0,54,0.00,,CLR,0.00,VWS V14.01,2013-07-13 01:07:00,
2013-07-12 21:12:00,74.0,56.8,29.90,East,86,0.0,0.0,55,0.00,,CLR,0.00,VWS V14.01,2013-07-13 01:12:00,
2013-07-12 21:17:00,73.0,56.4,29.90,East,86,0.0,0.0,56,0.00,,CLR,0.00,VWS V14.01,2013-07-13 01:17:00,
2013-07-12 21:32:00,72.0,57.4,29.90,East,86,0.0,0.0,60,0.00,,CLR,0.00,VWS V14.01,2013-07-13 01:32:00,
2013-07-12 21:37:00,71.8,57.6,29.90,East,86,0.0,0.0,61,0.00,,CLR,0.00,VWS V14.01,2013-07-13 01:37:00,
2013-07-12 21:42:00,71.3,58.9,29.90,East,86,0.0,0.0,65,0.00,,CLR,0.00,VWS V14.01,2013-07-13 01:42:00,
2013-07-12 21:47:00,70.6,58.7,29.90,East,86,0.0,0.0,66,0.00,,CLR,0.00,VWS V14.01,2013-07-13 01:47:00,
2013-07-12 21:57:00,69.3,58.7,29.90,East,86,0.0,0.0,69,0.00,,CLR,0.00,VWS V14.01,2013-07-13 01:57:00,
2013-07-12 22:02:00,68.6,58.8,29.91,East,86,0.0,0.0,71,0.00,,CLR,0.00,VWS V14.01,2013-07-13 02:02:00,
2013-07-12 22:07:00,68.3,58.2,29.91,East,86,0.0,0.0,70,0.00,,CLR,0.00,VWS V14.01,2013-07-13 02:07:00,
2013-07-12 22:17:00,67.9,58.5,29.91,East,86,0.0,0.0,72,0.00,,CLR,0.00,VWS V14.01,2013-07-13 02:17:00,
2013-07-12 22:22:00,67.6,58.7,29.91,East,86,0.0,0.0,73,0.00,,CLR,0.00,VWS V14.01,2013-07-13 02:22:00,
2013-07-12 22:32:00,67.3,58.7,29.91,East,86,0.0,0.0,74,0.00,,CLR,0.00,VWS V14.01,2013-07-13 02:32:00,
2013-07-12 22:37:00,67.3,59.1,29.91,East,86,0.0,0.0,75,0.00,,CLR,0.00,VWS V14.01,2013-07-13 02:37:00,
2013-07-12 22:42:00,66.8,58.6,29.91,East,86,0.0,0.0,75,0.00,,CLR,0.00,VWS V14.01,2013-07-13 02:42:00,
2013-07-12 22:52:00,65.8,58.4,29.92,East,86,0.0,0.0,77,0.00,,CLR,0.00,VWS V14.01,2013-07-13 02:52:00,
2013-07-12 22:57:00,65.6,58.6,29.92,East,86,0.0,0.0,78,0.00,,CLR,0.00,VWS V14.01,2013-07-13 02:57:00,
2013-07-12 23:02:00,65.5,58.5,29.92,East,86,0.0,0.0,78,0.00,,CLR,0.00,VWS V14.01,2013-07-13 03:02:00,
2013-07-12 23:07:00,65.5,58.5,29.92,East,86,0.0,0.0,78,0.00,,CLR,0.00,VWS V14.01,2013-07-13 03:07:00,
2013-07-12 23:12:00,65.2,58.2,29.92,East,86,0.0,0.0,78,0.00,,CLR,0.00,VWS V14.01,2013-07-13 03:12:00,
2013-07-12 23:27:00,64.8,58.1,29.92,East,86,0.0,0.0,79,0.00,,CLR,0.00,VWS V14.01,2013-07-13 03:27:00,
2013-07-12 23:32:00,64.7,58.0,29.92,East,86,0.0,0.0,79,0.00,,CLR,0.00,VWS V14.01,2013-07-13 03:32:00,
2013-07-12 23:37:00,64.5,57.8,29.92,East,86,0.0,0.0,79,0.00,,CLR,0.00,VWS V14.01,2013-07-13 03:37:00,
2013-07-12 23:47:00,64.5,57.8,29.92,East,86,0.0,0.0,79,0.00,,CLR,0.00,VWS V14.01,2013-07-13 03:47:00,
2013-07-12 23:52:00,64.5,57.8,29.92,East,86,0.0,0.0,79,0.00,,CLR,0.00,VWS V14.01,2013-07-13 03:52:00,